TJS-15 AKM, 63299

Orbit data source: Space-Track

TJS-15 AKM, 63299 is space debris in GEO originally from a launch on Sun, 09 Mar 2025 UTC launched from the Xichang Space Center, China (XSC). Debris objects in space refer to the collection of defunct objects orbiting the Earth. Examples of debris include non-operational satellites, rocket bodies, and fragments generated from explosions, collisions, or faulty payload assembly.

Not visible in the next 10 days
Identifier
63299, 2025-045C
Orbit
GEO
Country
Flag of CNCN / PRC
Related business
Manufacturer
CAST
Mission
Defense Technology
Bus & Motor
Unknown
Mass
~500 kg wet, ~500 kg dry
Launch date (UTC)
2025-03-09 (9 months ago)
Launch vehicle
Unknown
Launch site
Xichang Space Center, China (XSC)
Object type
Payload
Rocket body
Debris
Shape & HBR
Box, 8.0 m
Radar Cross Section
1.500 m², Large (>1 m²)

Expand to show TLE details & history
Last TLE update: 2 days ago

TLE from 2 days ago
0 TJS-15 AKM
1 63299U 25045C   25345.31063137 -.00000221  00000-0  00000+0 0  9993
2 63299   0.7305  87.8234 0017729  71.0711 201.1818  0.98876782  2751
Epoch: 2025-12-11T07:27Z
TLE epoch observation values (Epoch: 2025-12-11T07:27:18.550Z)
Latitude
-0.72402°
Longitude
167.9045°
Altitude
36,251.92 km
Speed
3.055 km/s
True Right ascension
00h 00m 00s
True Declination
0° 43' 24"
Sunlit
Object was in daylight at epoch
Visualization orbit readout
Latitude
Unknown
Longitude
Unknown
Altitude
Unknown
Speed
Unknown
Apparent Right ascension
Unknown
Apparent Declination
Unknown
Sunlit
N/A
Visualization observer readout
Local Sidereal Time
05:23:34
Azimuth
Unknown
Elevation
Unknown
Doppler factor
Unknown
Orbital elements
Apogee altitude
36,258.773 km
Perigee altitude
36,107.859 km
Semi-major axis
42,561.453 km
Eccentricity
0.00177
Inclination
0.7305°
RAAN
87.8234°
Arg. of periapsis
71.0711°
True anomaly
201.10854°
Mean anomaly
201.1818°
Eccentric anomaly
201.14516°
Mean motion
0.24718 °/min
Orbital period
1,456.41 mins
BSTAR
0
Loading maneuver chart data...
Computing Atmospheric mass density...
Loading historical data...
Loading historical data...
Loading historical data...
Loading historical data...
Loading historical data...
Loading historical data...
Loading historical data...
Other satellites on launch #45 in the year 2025 (2025-03-09 UTC)

Documentation

Showing up to 5 results
|